Regional Weather Roundup
Issued by NWS

Home | Current Version | Previous Version | Text Only | Print | Product List | Glossary On
Versions: 1 2 3 4 5 6 7 8 9 10 11 12 13 14 15 16 17 18 19 20 21 22 23 24 25 26 27 28 29 30 31 32 33 34 35 36 37 38 39 40 41 42 43 44 45 46 47 48 49 50
000
ASUS43 KTOP 260559
RWRKS

WEATHER ROUNDUP FOR KANSAS
NATIONAL WEATHER SERVICE GOODLAND KS
100 AM CDT SUN APR 26 2015

NOTE:  "FAIR" INDICATES FEW OR NO CLOUDS BELOW 12,000 FEET WITH NO
SIGNIFICANT WEATHER AND/OR OBSTRUCTIONS TO VISIBILITY.

KSZ001>006-013>018-027>032-041>047-260700-
NORTHWEST KANSAS

CITY           SKY/WX    TMP DP  RH WIND       PRES   REMARKS
GOODLAND       FOG       50  50 100 E17       29.80R VSB 3/4
6HR MIN TEMP:  50; 6HR MAX TEMP:  69;

HAYS           CLOUDY    50  43  76 NE16      29.82R
HILL CITY      CLOUDY    49  47  93 NE14      29.85R FOG
6HR MIN TEMP:  49; 6HR MAX TEMP:  58;

RUSSELL        CLOUDY    50  49  96 NE16      29.81R FOG
6HR MIN TEMP:  50; 6HR MAX TEMP:  61;

$$

KSZ061>065-074>080-084>089-260700-
SOUTHWEST KANSAS

CITY           SKY/WX    TMP DP  RH WIND       PRES   REMARKS
DODGE CITY     CLOUDY    54  51  90 NE17      29.76S
6HR MIN TEMP:  54; 6HR MAX TEMP:  76;

ELKHART          N/A     56  42  59 E18         N/A
GARDEN CITY    CLOUDY    53  50  89 E25G32    29.74S
6HR MIN TEMP:  52; 6HR MAX TEMP:  75;

GREAT BEND     CLOUDY    52  46  82 E15       29.80R
LIBERAL        PTCLDY    57  48  72 E16       29.73S
$$

KSZ066>073-081>083-090>101-260700-
SOUTHEAST KANSAS

CITY           SKY/WX    TMP DP  RH WIND       PRES   REMARKS
CHANUTE        CLOUDY    54  50  86 N10       29.78S
6HR MIN TEMP:  54; 6HR MAX TEMP:  66;

COFFEYVILLE    CLOUDY    58  52  80 NE12      29.76S
6HR MIN TEMP:  57; 6HR MAX TEMP:  71;

HUTCHINSON     CLOUDY    53  49  86 NE8       29.79R
6HR MIN TEMP:  53; 6HR MAX TEMP:  70;

MEDICINE LODGE   N/A     56  52  86 NE13      29.74S
NEWTON         CLOUDY    52  45  76 NE10G21   29.80S
PARSONS        CLOUDY    57  52  83 NE7       29.78R
6HR MIN TEMP:  57; 6HR MAX TEMP:  71;

WICHITA INTL   CLOUDY    54  50  86 E16       29.79R
6HR MIN TEMP:  54; 6HR MAX TEMP:  71; 6HR PCP: TRACE;

WICHITA JABRA  CLOUDY    53  49  86 NE15      29.78R
6HR MIN TEMP:  53; 6HR MAX TEMP:  70;

WICHITA MCCONL CLOUDY    54  50  87 E12       29.79R
WINFIELD       CLOUDY    56  52  86 NE15      29.76S
6HR MIN TEMP:  56; 6HR MAX TEMP:  73;

$$

KSZ007>012-019>026-033>040-048>060-102>105-260700-
NORTHEAST KANSAS

CITY           SKY/WX    TMP DP  RH WIND       PRES   REMARKS
CONCORDIA      CLOUDY    48  44  86 NE10      29.85S
6HR MIN TEMP:  48; 6HR MAX TEMP:  52;

EMPORIA        CLOUDY    50  47  89 N10       29.81S
6HR MIN TEMP:  50; 6HR MAX TEMP:  57;

LAWRENCE       CLOUDY    50  46  86 NE7       29.84R
6HR MIN TEMP:  49; 6HR MAX TEMP:  53;

MANHATTAN      CLOUDY    49  47  93 NE8       29.85R FOG
6HR MIN TEMP:  49; 6HR MAX TEMP:  55;

OLATHE IND     CLOUDY    49  48  97 N7        29.83R FOG
6HR MIN TEMP:  49; 6HR MAX TEMP:  53;

OLATHE EXE     CLOUDY    50  48  93 NE8       29.82R FOG
6HR MIN TEMP:  49; 6HR MAX TEMP:  53;

SALINA         CLOUDY    51  47  86 NE10      29.83F
6HR MIN TEMP:  51; 6HR MAX TEMP:  62;

TOPEKA BILLARD CLOUDY    50  46  86 N5        29.85R
6HR MIN TEMP:  50; 6HR MAX TEMP:  53;

TOPEKA FORBES  CLOUDY    51  47  86 NE6       29.83R
6HR MIN TEMP:  50; 6HR MAX TEMP:  55;

$$


USA.gov is the U.S. government's official web portal to all federal, state and local government web resources and services.